Location: Unspecified
(0.0000°N, 0.0000°E)
Time: 14:47:44
(UTC+00:00)

Vanguard 1 - All Passes

Search period start: 20 July 2017 00:00
Search period end: 30 July 2017 00:00
Orbit: 652 x 3832 km, 34.3° (Epoch: 19 July)

Date Brightness Start Highest point End Pass type
(mag) Time Alt. Az. Time Alt. Az. Time Alt. Az.
20 Jul - 00:51:06 10° W 01:07:06 31° NNW 01:26:34 10° NNE visible
20 Jul - 03:26:51 10° NW 03:41:21 19° N 03:54:12 10° NE visible
20 Jul - 05:59:47 10° NNW 06:14:13 24° NNE 06:24:07 10° ENE daylight
20 Jul - 08:26:20 10° NW 08:40:38 55° NNE 08:48:17 10° ESE daylight
20 Jul - 10:53:43 10° WNW 11:01:48 32° SW 11:06:58 10° SSE daylight
20 Jul - 18:11:23 10° SSE 18:13:53 11° SE 18:16:45 10° ESE daylight
20 Jul - 20:25:48 10° SW 20:35:24 61° SE 20:53:13 10° ENE visible
20 Jul - 22:46:41 10° WSW 23:00:05 53° NNW 23:21:42 10° NE visible
21 Jul - 01:14:48 10° WNW 01:30:25 26° NNW 01:48:18 10° NNE visible
21 Jul - 03:50:58 10° NW 04:05:26 19° N 04:17:39 10° NE visible
21 Jul - 06:21:20 10° NNW 06:36:59 30° NNE 06:46:58 10° ENE daylight
21 Jul - 08:47:53 10° NW 09:02:10 77° NE 09:09:35 10° ESE daylight
21 Jul - 11:16:56 10° W 11:22:39 19° SW 11:26:51 10° S daylight
21 Jul - 18:29:43 10° S 18:35:07 19° SE 18:42:43 10° E visible
21 Jul - 20:46:37 10° SW 20:56:36 81° SE 21:15:31 10° NE visible
21 Jul - 23:08:46 10° W 23:22:24 43° NNW 23:43:10 10° NE visible
22 Jul - 01:39:00 10° WNW 01:54:07 22° NNW 02:10:26 10° NNE visible
22 Jul - 04:14:11 10° NNW 04:29:19 21° N 04:41:26 10° NE visible
22 Jul - 06:42:45 10° NW 06:59:25 37° NNE 07:09:21 10° E daylight
22 Jul - 09:09:43 10° WNW 09:23:25 77° SW 09:30:34 10° SE daylight
22 Jul - 11:42:08 10° SW 11:43:38 11° SW 11:45:01 10° SSW daylight
22 Jul - 18:49:28 10° SSW 18:56:07 29° SE 19:06:49 10° E visible
22 Jul - 21:07:41 10° WSW 21:18:01 79° NW 21:37:28 10° NE visible
22 Jul - 23:31:17 10° W 23:45:01 35° NNW 00:04:40 10° NE visible
23 Jul - 02:03:24 10° NW 02:18:08 20° N 02:33:10 10° NE visible
23 Jul - 04:36:37 10° NNW 04:52:53 24° NNE 05:05:07 10° ENE visible
23 Jul - 07:04:10 10° NW 07:21:34 48° NNE 07:31:17 10° E daylight
23 Jul - 09:31:55 10° WNW 09:44:26 53° SW 09:51:16 10° SE daylight
23 Jul - 19:09:41 10° SSW 19:17:02 42° SE 19:30:03 10° ENE visible
23 Jul - 21:29:01 10° WSW 21:39:43 62° NNW 21:59:10 10° NE visible
23 Jul - 23:54:19 10° WNW 00:07:59 28° NNW 00:26:19 10° NNE visible
24 Jul - 02:27:34 10° NW 02:42:20 20° N 02:56:37 10° NE visible
24 Jul - 04:58:31 10° NNW 05:16:04 28° NNE 05:28:26 10° ENE visible
24 Jul - 07:25:41 10° NW 07:43:25 63° NNE 07:52:52 10° ESE daylight
24 Jul - 09:54:37 10° WNW 10:05:18 35° SW 10:11:41 10° SSE daylight
24 Jul - 19:30:12 10° SW 19:37:59 61° SE 19:52:40 10° ENE visible
24 Jul - 21:50:42 10° W 22:01:41 48° NNW 22:20:41 10° NE visible
25 Jul - 00:17:50 10° WNW 00:31:20 24° NNW 00:48:16 10° NNE visible
25 Jul - 02:51:06 10° NW 03:06:30 20° N 03:20:36 10° NE visible
25 Jul - 05:20:08 10° NW 05:38:54 35° NNE 05:51:16 10° E visible
25 Jul - 07:47:23 10° NW 08:04:59 83° NE 08:14:07 10° ESE daylight
25 Jul - 10:17:59 10° W 10:26:11 23° SW 10:31:41 10° S daylight
25 Jul - 17:34:47 10° S 17:38:30 15° SE 17:43:16 10° ESE daylight
25 Jul - 19:51:00 10° SW 19:59:06 84° SE 20:14:50 10° NE visible
25 Jul - 22:12:45 10° W 22:23:58 38° NNW 22:42:08 10° NE visible
26 Jul - 00:41:43 10° NW 00:55:03 21° N 01:10:46 10° NE visible
26 Jul - 03:13:53 10° NNW 03:30:27 23° NNE 03:44:45 10° ENE visible
26 Jul - 05:41:37 10° NW 06:01:25 43° NNE 06:13:37 10° E visible
26 Jul - 08:09:23 10° WNW 08:26:17 75° SW 08:35:05 10° SE daylight
26 Jul - 10:42:32 10° WSW 10:47:12 14° SW 10:50:54 10° SSW daylight
26 Jul - 17:54:12 10° S 17:59:26 25° SE 18:07:20 10° E daylight
26 Jul - 20:12:04 10° WSW 20:20:28 73° NW 20:36:40 10° NE visible
26 Jul - 22:35:16 10° WNW 22:46:32 30° NNW 23:03:39 10° NE visible
27 Jul - 01:05:40 10° NW 01:19:04 20° N 01:34:01 10° NE visible
27 Jul - 03:36:03 10° NNW 03:54:03 26° NNE 04:08:38 10° ENE visible
27 Jul - 06:03:06 10° NW 06:23:36 55° NNE 06:35:32 10° ESE daylight
27 Jul - 08:31:46 10° WNW 08:47:23 55° SW 08:55:48 10° SE daylight
27 Jul - 18:14:19 10° SSW 18:20:17 39° SE 18:30:23 10° ENE visible
27 Jul - 20:33:26 10° WSW 20:42:06 55° NNW 20:58:14 10° NE visible
27 Jul - 22:58:14 10° WNW 23:09:28 25° NNW 23:25:20 10° NNE visible
28 Jul - 01:29:15 10° NW 01:43:14 20° N 01:58:03 10° NE visible
28 Jul - 03:57:48 10° NNW 04:17:16 32° NNE 04:32:05 10° E visible
28 Jul - 06:24:41 10° NW 06:45:30 69° NE 06:57:06 10° ESE daylight
28 Jul - 08:54:39 10° WNW 09:08:21 39° SW 09:16:16 10° SSE daylight
28 Jul - 18:34:49 10° SW 18:41:10 60° SE 18:52:48 10° ENE visible
28 Jul - 20:55:08 10° W 21:04:02 41° NNW 21:19:38 10° NE visible
28 Jul - 23:21:39 10° NW 23:32:44 21° N 23:47:25 10° NNE visible
29 Jul - 01:52:12 10° NNW 02:07:22 21° N 02:22:36 10° NE visible
29 Jul - 04:19:19 10° NW 04:40:07 39° NNE 04:54:58 10° E visible
29 Jul - 06:46:28 10° NW 07:07:07 87° NE 07:18:21 10° SE daylight
29 Jul - 09:18:11 10° W 09:29:20 27° SW 09:36:25 10° SSE daylight
29 Jul - 16:40:06 10° SSE 16:42:10 12° SE 16:44:30 10° ESE daylight
29 Jul - 18:55:37 10° SW 19:02:14 88° SE 19:14:46 10° NE visible
29 Jul - 21:17:15 10° W 21:26:14 32° NNW 21:40:57 10° NE visible
